Content
SEND FEEDBACK

Daily
Averages
Monthly
Summary
United States of America

JUD, NORTH DAKOTA


Home > North America > United States > North Dakota
Elevation: 1510 feet     Latitude: 46 33N     Longitude: 098 44W

WEATHER
 
SELECT A DAY
Number of Records: 204,073;   Date Range: 1/1/95 - 9/18/14
 
SHARE

PRINT THIS DATA

[ ← Previous Day ]
WEATHER ALMANAC - JANUARY 23, 2013
[ Next Day → ]
[ °C ]   °F
Weather ElementAverageHighLow
Temperature-3.1 °F7 °F (12:56 am)-11.9 °F (9:56 pm)
Dewpoint-10.5 °F3 °F (1:56 am)-20 °F (8:56 pm)
Humidity71.1 %84 % (1:56 am)62 % (2:56 pm)
Barometer30.49 in30.71 in (9:56 pm)30.20 in (1:56 am)
Wind Speed12.8 mph20.7 mph (11:56 am)
Weather ElementAverage
Visibility10 mi
Wind DirectionSW (226.3 °)

Weather ElementTotal
Precipitation---
Heating Degree Days67.5 (Base 65)
Averaged from 24 records on January 23, 2013
WEATHER CONDITIONS BREAKOUT
WIND DIRECTION BREAKOUT
WEATHER BY HOUR - JANUARY 23, 2013
[ °C ]   °F
Local TimeTemperatureDewpointHumidityBarometerVisibilityWind DirectionWind SpeedGust SpeedPrecipitationEventsConditions
12:56 AM7.0 °F1.9 °F80 %30.21 in10.0 miWNW (300°)8.1 mphClear
1:56 AM7.0 °F3.0 °F84 %30.20 in10.0 miNW (320°)10.4 mphClear
2:56 AM6.1 °F1.0 °F80 %30.22 in10.0 miNNW (330°)12.7 mphClear
3:56 AM5.0 °F0.0 °F80 %30.25 in10.0 miNW (310°)13.8 mphClear
4:56 AM3.0 °F-2.0 °F80 %30.26 in10.0 miNW (320°)13.8 mphClear
5:56 AM1.9 °F-4.0 °F76 %30.30 in10.0 miNNW (330°)16.1 mphClear
6:56 AM0.0 °F-6.0 °F76 %30.34 in10.0 miNNW (330°)17.3 mphClear
7:56 AM-2.0 °F-8.0 °F76 %30.37 in10.0 miNNW (330°)15.0 mphClear
8:56 AM-2.9 °F-9.0 °F75 %30.42 in10.0 miNNW (340°)17.3 mphClear
9:56 AM-2.9 °F-9.9 °F72 %30.47 in10.0 miNorth (350°)17.3 mphClear
10:56 AM-2.9 °F-11.0 °F68 %30.52 in10.0 miNorth (360°)18.4 mphClear
11:56 AM-2.9 °F-11.9 °F65 %30.53 in10.0 miNorth (10°)20.7 mphClear
12:56 PM-2.0 °F-11.9 °F63 %30.55 in10.0 miNorth (350°)17.3 mphClear
1:56 PM-2.0 °F-11.9 °F63 %30.54 in10.0 miNorth (10°)17.3 mphClear
2:56 PM-2.9 °F-13.0 °F62 %30.58 in10.0 miNorth (350°)16.1 mphClear
3:56 PM-5.1 °F-14.1 °F65 %30.62 in10.0 miNorth (350°)15.0 mphClear
4:56 PM-6.0 °F-15.0 °F65 %30.66 in10.0 miNorth (350°)9.2 mphClear
5:56 PM-8.0 °F-16.1 °F68 %30.66 in10.0 miNNE (20°)9.2 mphClear
6:56 PM-9.9 °F-17.0 °F71 %30.67 in10.0 miNNE (20°)9.2 mphClear
7:56 PM-11.0 °F-18.0 °F71 %30.67 in10.0 miNE (50°)6.9 mphClear
8:56 PM-11.0 °F-20.0 °F64 %30.69 in10.0 miNE (40°)4.6 mphClear
9:56 PM-11.9 °F-20.0 °F67 %30.71 in10.0 miENE (70°)4.6 mphClear
10:56 PM-11.0 °F-20.0 °F64 %30.71 in10.0 miEast (80°)8.1 mphClear
11:56 PM-11.0 °F-18.0 °F71 %30.69 in10.0 miESE (110°)9.2 mphClear
Hourly data recorded from KJMS, located miles away from Jud, North Dakota







STORIES FROM OUR PARTNERS